Tracking 19476 objects as of 18-Jan-2019
HD Live streaming from Space Station
objects crossing your sky now

SCATHA

Track SCATHA now!
SCATHA is classified as:


NORAD ID: 11256
Int'l Code: 1979-007A
Perigee: 28,019.1 km
Apogee: 42,870.3 km
Inclination: 16.0 °
Period: 1,418.3 minutes
Semi major axis: 41815 km
RCS: 3.2195 m2 (large)
Launch date: January 30, 1979
Source: United States (US)
Launch site: AIR FORCE EASTERN TEST RANGE (AFETR)
aabbcc
Your satellite tracking list
Your tracking list is empty




NASA's NSSDC Master Catalog

Two Line Element Set (TLE):
1 11256U 79007A   19016.71483708 -.00000332 +00000-0 +00000-0 0  9992
2 11256 015.9704 318.5920 1775785 044.5383 113.8253 01.01529906114954
Source of the keplerian elements: AFSPC